RH
76 81 82 85 88 91 89 86 90 91 90 91 91 91 91 92 92 94 93 90 91 92 90 90 89 88 84 87 94 95 95 96 95 80 93 84 83 80 81 89 82 89 91
80 85 84 85 88 87 89 88 88 91 92 91 92 93 92 91 92 93 91 91 93 92 90 91 90 78 91 89 95 94 95 92 90 93 91 82 84 84 88 91 80 72 87
81 87 88 84 84 85 84 88 91 91 91 91 91 92 92 92 92 93 92 92 91 90 91 91 90 91 92 90 94 90 95 88 96 96 94 94 90 90 91 92 92 92 73
90 92 88 93 87 83 82 90 91 91 90 93 92 92 91 91 91 91 91 93 92 89 92 92 92 97 95 91 91 93 94 96 96 98 92 88 94 90 94 94 95 97 91
90 90 89 90 84 88 91 92 91 91 88 92 92 93 93 89 84 92 92 92 94 94 93 96 94 92 96 95 93 94 95 95 97 99 99 97 96 94 93 86 94 94 96
95 93 90 91 94 94 95 94 92 92 92 93 94 92 93 91 97 96 93 93 92 93 95 94 90 93 94 92 91 90 94 96 96 98 98 97 94 93 96 95 95 96 94
97 96 94 94 94 91 92 94 94 94 93 93 93 93 94 96 95 94 96 95 93 93 92 93 94 84 91 92 88 92 87 85 86 90 94 95 93 89 82 84 86 90 95
97 95 92 97 96 94 95 96 95 96 96 96 94 93 97 98 98 98 94 92 92 94 95 95 93 85 86 85 89 92 83 72 76 61 80 75 73 78 80 74 82 86 96
94 95 95 96 96 95 97 98 97 99 98 97 97 99 99 99 98 99 98 98 96 95 93 88 86 86 89 86 80 86 91 87 87 99 95 97 96 95 90 81 90 96 97
95 94 95 94 98 96 95 96 97 98 98 99 99 99 99 99 100 100 100 99 98 98 97 95 88 84 87 86 75 88 95 91 91 91 97 95 92 91 84 76 69 58 75
95 94 95 95 95 97 97 97 99 100 99 99 99 99 99 98 99 100 100 98 98 99 98 96 83 89 90 94 91 86 87 85 80 87 92 98 98 97 94 79 69 69 72
97 97 98 98 99 99 99 99 99 99 99 99 99 99 99 99 98 99 100 99 96 98 98 99 97 95 92 92 86 90 87 86 78 73 76 90 96 94 76 66 71 68 68
97 98 98 98 99 99 99 99 99 99 99 99 99 99 99 99 99 96 95 96 95 98 99 97 96 93 84 79 84 81 82 69 72 68 67 76 77 84 79 76 73 72 71
98 98 99 98 99 99 99 99 99 99 99 99 99 99 99 99 99 99 99 98 93 92 80 87 81 75 82 82 78 80 75 74 74 70 70 70 66 61 60 61 56 55 52
98 99 99 99 99 99 99 100 99 100 99 99 99 99 99 99 99 98 96 91 92 85 65 66 65 69 70 73 76 80 78 72 69 71 70 69 66 62 61 61 59 56 54
99 99 99 99 99 99 99 99 98 99 100 100 100 98 99 95 86 79 75 73 74 67 70 70 71 71 70 70 69 68 70 76 73 72 70 68 63 59 58 57 58 57 57
98 99 99 99 99 99 99 99 99 97 90 94 94 90 83 82 78 77 80 81 74 70 65 72 74 72 68 69 66 67 66 71 80 68 64 64 61 60 59 57 58 57 53
99 100 99 97 93 95 98 97 93 85 76 75 77 75 80 77 75 76 74 73 66 71 72 71 72 72 69 69 66 67 70 71 68 67 63 62 62 62 58 56 54 55 54
85 80 76 92 74 72 66 63 56 54 57 60 57 64 71 74 73 77 76 68 68 68 71 75 76 73 72 71 72 71 74 69 72 71 68 65 61 59 58 54 52 68 64
73 78 75 71 64 65 62 58 58 58 59 63 63 60 62 74 73 74 72 72 71 72 72 73 74 75 76 78 76 76 72 74 74 70 67 65 65 64 59 56 54 53 54
76 79 81 73 69 68 69 65 66 63 66 69 66 68 77 70 71 75 75 78 73 72 76 75 76 76 76 77 77 77 75 73 75 74 71 70 73 70 68 63 59 54 54
71 71 75 77 78 77 76 73 74 72 73 74 66 71 89 74 73 74 74 74 73 76 72 74 71 72 73 77 82 77 78 80 81 83 83 82 65 60 64 57 54 54 53
61 63 64 64 67 76 72 73 74 75 77 69 67 68 67 68 69 69 71 73 75 74 74 70 68 66 68 69 74 75 71 69 82 88 78 64 56 54 53 55 58 61 63
62 56 61 66 66 66 70 74 74 78 70 70 70 70 70 71 70 72 70 71 72 73 72 71 69 66 68 66 67 72 72 67 77 80 74 63 59 62 57 58 64 62 62
58 61 65 65 66 71 72 70 72 71 70 69 70 70 71 72 72 71 71 72 72 72 72 72 72 71 70 73 66 62 83 96 75 82 60 60 60 62 57 61 62 58 58
64 65 66 66 68 69 70 71 72 73 72 72 72 73 73 72 71 71 74 74 73 72 74 76 75 74 71 69 66 89 97 96 82 94 61 60 62 59 61 65 60 58 55
Wind_Speed
12 12 11 9 8 6 8 8 7 5 6 7 7 7 7 7 7 6 6 5 6 5 5 5 5 4 4 4 3 3 3 3 4 3 2 2 3 3 2 2 2 3 3
12 9 9 5 6 9 9 8 7 7 5 7 5 7 7 7 7 8 8 6 8 7 7 6 7 4 6 5 3 5 4 5 4 5 2 2 4 1 1 1 2 2 2
9 10 9 9 8 11 11 9 8 8 7 7 7 7 7 7 7 7 6 6 7 7 7 7 8 5 5 4 4 5 3 3 4 4 3 1 2 1 2 1 1 1 0
11 12 12 9 10 12 11 9 9 9 9 9 9 9 8 7 6 6 6 6 6 7 7 7 6 4 6 4 4 5 4 4 3 4 4 3 1 1 2 2 4 2 2
13 13 16 14 12 10 11 10 10 10 11 9 8 7 6 6 6 7 6 6 6 7 5 3 4 3 2 2 2 3 3 4 3 4 4 2 2 2 2 2 2 2 2
8 13 13 9 10 12 10 10 13 12 12 10 10 9 8 5 7 9 6 5 5 5 4 3 3 4 2 4 3 2 3 3 3 2 1 3 2 1 1 2 2 2 3
6 9 11 10 13 16 14 12 12 13 11 12 11 9 8 5 8 7 8 4 4 4 3 2 3 5 6 3 1 3 6 7 6 2 2 2 3 4 2 2 3 2 2
7 9 11 12 16 16 13 13 12 10 12 10 10 9 7 5 6 5 7 4 5 5 5 5 5 4 6 3 3 2 4 6 6 5 4 3 4 4 3 2 2 3 1
8 10 10 12 15 15 14 13 10 9 7 9 7 9 8 7 7 7 6 7 8 7 5 5 5 5 7 8 5 3 3 5 6 7 6 7 7 10 9 3 4 4 3
10 12 12 13 10 15 14 12 9 5 7 5 7 7 10 8 6 8 5 5 7 6 6 6 10 6 8 10 5 4 3 2 3 3 1 2 3 5 7 5 1 3 2
10 13 17 16 14 11 10 10 9 7 8 8 9 7 8 6 6 7 10 6 7 6 6 4 3 9 9 8 6 3 1 3 2 1 1 1 4 3 2 2 2 2 1
11 13 9 6 6 7 9 6 10 11 11 10 11 8 7 7 11 15 14 11 10 8 6 4 3 5 7 4 3 3 1 1 3 5 5 4 3 2 2 2 3 2 1
10 12 12 10 6 8 9 7 9 10 10 9 9 9 8 8 9 16 19 16 13 7 5 3 6 7 5 3 6 4 3 4 4 5 4 3 3 2 2 3 3 3 3
10 12 10 10 11 8 8 7 5 8 9 10 11 11 9 9 9 6 4 8 10 6 3 5 6 5 4 3 3 4 4 4 4 3 2 2 2 3 3 3 3 4 3
6 8 8 8 10 9 8 8 8 6 4 11 11 13 10 8 7 10 6 2 4 6 4 2 4 3 4 3 3 3 3 4 4 2 3 3 3 3 3 3 3 3 3
6 5 7 6 7 8 8 11 23 20 18 17 15 13 10 12 9 11 10 10 7 7 4 4 4 4 5 3 4 4 4 5 3 3 3 3 3 3 3 3 3 3 4
6 4 5 5 5 6 7 8 10 13 21 18 17 18 15 10 9 7 8 11 10 8 6 5 4 3 3 4 4 4 3 3 2 2 2 2 1 2 3 3 3 3 5
6 7 5 3 4 6 6 6 6 8 8 6 13 10 12 11 8 8 8 7 6 6 3 3 3 2 2 3 3 2 2 2 2 2 2 1 1 2 3 3 3 4 4
6 4 4 4 4 4 5 6 6 7 7 6 4 6 6 9 9 9 8 5 4 3 3 3 2 2 3 2 2 2 3 4 3 3 3 3 3 3 4 3 3 4 3
5 9 5 4 4 4 4 5 5 6 6 5 5 3 2 3 3 3 3 3 4 5 5 5 4 4 4 4 3 3 4 4 4 4 3 3 3 3 3 3 3 3 3
3 3 6 4 4 3 3 4 4 5 5 4 3 2 3 4 4 4 4 5 5 5 5 5 4 4 3 4 4 4 4 4 4 4 3 4 4 4 3 3 3 3 4
3 3 3 4 3 3 3 3 4 5 5 5 4 3 7 6 6 6 6 6 5 5 4 4 4 4 3 4 4 3 3 3 3 4 4 4 4 4 3 2 4 3 3
4 4 4 3 4 5 4 3 4 4 5 5 5 6 6 7 6 6 5 5 5 4 3 3 3 3 3 4 4 4 5 5 5 3 3 2 3 3 3 4 4 3 3
4 5 5 4 3 4 5 6 5 6 7 7 7 6 7 6 6 6 5 4 4 4 3 3 3 4 4 4 4 5 5 5 3 2 2 1 3 3 4 3 2 3 4
4 5 5 5 6 5 6 6 6 7 7 7 7 6 6 6 5 4 4 3 3 3 2 2 2 3 6 8 7 7 7 8 5 2 2 5 6 5 3 2 2 4 6
4 5 5 5 5 6 6 7 6 6 7 6 6 6 6 5 5 4 3 3 2 1 1 2 2 2 4 4 4 5 4 7 6 6 4 4 4 4 3 3 4 4 6
Wind_Direction
199 202 200 200 200 209 212 213 221 207 197 203 196 207 213 206 204 205 214 222 231 242 244 238 248 238 257 254 235 239 242 210 249 279 259 280 282 307 1 62 61 48 43
226 192 198 188 199 206 219 219 204 220 214 214 199 212 209 201 201 207 213 207 216 228 234 239 255 255 238 243 239 249 247 226 235 263 249 280 242 242 275 108 41 60 37
190 197 193 193 197 221 222 217 209 208 214 217 222 215 210 209 204 211 214 226 228 227 226 234 245 245 247 245 244 258 262 263 240 257 288 291 293 275 265 258 224 196 194
175 199 215 197 206 217 220 217 212 212 215 215 212 209 204 203 214 220 215 221 231 239 232 230 240 227 240 249 260 269 276 275 264 259 273 281 279 319 273 277 273 237 247
198 203 216 211 224 218 212 200 214 214 217 213 214 210 209 204 209 212 216 222 231 246 239 229 220 236 206 222 251 267 253 260 258 258 258 244 266 299 292 350 295 313 272
201 218 228 212 199 214 208 213 205 209 212 202 211 212 204 207 201 201 199 209 218 223 208 184 141 85 55 51 39 359 274 278 276 253 254 260 259 247 335 333 318 328 317
241 229 226 209 213 226 224 219 213 205 204 210 209 200 203 170 166 176 185 185 180 170 161 146 101 51 30 5 11 66 61 54 46 337 322 5 11 11 343 9 13 346 332
267 259 249 218 214 223 210 212 211 208 199 203 213 203 158 137 154 147 173 148 109 73 57 66 94 72 29 1 14 74 53 45 31 32 44 46 54 25 356 327 358 310 87
307 280 248 228 218 217 207 197 194 190 193 196 173 157 151 141 156 157 155 116 101 88 74 71 85 75 23 23 65 57 80 56 20 21 64 56 49 47 20 22 40 51 37
300 289 279 242 217 217 207 200 175 191 178 163 132 128 128 129 129 137 143 124 120 112 93 67 53 47 31 32 39 33 49 23 16 7 10 134 136 94 34 37 6 60 343
314 298 269 246 213 196 203 192 167 148 130 129 122 109 101 109 92 123 138 128 124 111 98 78 47 34 32 24 13 354 306 304 290 307 23 59 89 100 70 50 53 104 115
341 336 328 197 166 158 163 150 138 129 128 129 125 106 90 84 80 82 81 101 118 124 125 119 106 11 288 246 206 275 0 184 74 70 64 56 72 75 84 62 30 37 10
357 2 18 39 59 109 113 124 124 125 136 136 130 121 112 93 73 66 90 81 72 90 144 176 155 269 252 112 83 78 47 41 54 62 59 52 44 32 15 359 5 358 336
16 12 11 42 40 43 84 87 103 132 135 136 122 116 115 107 95 80 27 86 84 56 316 230 124 115 81 100 89 69 57 52 70 76 65 50 20 25 29 3 9 1 349
46 23 30 36 50 53 46 51 66 60 67 108 117 114 112 105 117 119 154 161 130 192 183 77 75 71 71 50 46 52 50 52 62 50 47 45 39 25 23 8 24 2 1
68 42 27 39 48 52 58 62 39 60 59 62 68 94 82 106 114 115 124 129 132 146 90 95 74 70 70 57 50 56 49 47 54 54 56 49 39 24 8 10 5 5 351
81 69 63 47 57 64 65 73 84 53 60 52 72 76 84 108 93 88 100 86 72 71 80 72 91 91 90 75 54 44 40 28 37 75 63 52 21 14 12 3 1 3 353
97 64 72 58 68 83 78 76 90 98 93 69 41 73 94 105 99 84 108 81 67 51 88 112 110 91 69 65 43 27 16 21 26 22 357 346 357 349 334 341 7 353 346
99 90 96 76 70 68 97 99 97 98 96 106 115 79 84 83 80 72 75 94 117 102 88 69 62 63 47 31 30 12 357 355 351 351 348 348 346 340 333 342 334 348 335
101 110 95 101 100 96 94 99 99 97 101 103 101 117 127 98 87 72 67 81 80 82 92 89 78 70 60 48 31 15 5 6 7 1 345 336 348 348 322 313 294 296 311
111 114 118 104 102 100 96 107 100 102 107 104 111 79 81 108 111 98 92 89 102 99 95 88 80 74 60 42 31 25 20 17 16 12 358 356 353 336 326 308 293 315 316
122 124 124 123 125 132 130 131 123 122 121 122 110 57 85 88 99 101 103 102 99 97 94 92 75 64 50 44 28 20 12 2 4 9 8 359 353 337 312 15 48 31 15
125 119 114 120 131 128 123 139 147 144 131 124 129 125 107 101 104 104 105 113 114 111 105 89 77 70 48 45 33 10 3 356 338 339 336 340 15 37 56 69 60 36 15
133 132 132 127 127 127 128 127 121 117 128 128 129 127 128 131 122 112 111 120 129 113 101 83 63 49 42 41 24 11 356 340 319 301 301 336 41 56 73 41 5 350 6
149 147 147 147 144 134 127 126 127 130 128 131 132 129 123 123 125 123 117 116 101 97 108 88 68 40 39 31 20 8 359 346 8 35 95 96 95 71 44 24 44 52 59
161 153 146 137 138 143 139 137 136 135 137 141 145 147 145 142 138 131 117 106 113 100 67 34 356 19 31 35 28 32 28 23 44 34 71 70 63 46 47 57 61 54 47